スペースウォッチ彗星

C/2007 D2 ( Spacewatch )

English version
Home page
Total 6,336 html files since Dec. 4, 1995
Updated on April 21, 2007

---------------------------------------------------------------------

・ プロフィール

発見日 2007年2月17日
発見光度 20.1等
発見者 Spacewatch

・ 軌道要素

T 2006 Nov. 24.2995 TT                                  MPC
q   1.245214             (2000.0)            P               Q
z  +0.018476       Peri.   65.1007      -0.6149261      -0.7882925
                   Node   297.1371      -0.7319370      +0.5604107
e   0.976993       Incl.  178.6178      -0.2934862      +0.2540370
From 64 observations 2007 Jan. 29-Mar. 16.

・ 光度変化

        m1 = 16.7 + 5 logΔ + 10.0 log r

---------------------------------------------------------------------

軌道要素はM.P.E.C. 2007-F65に掲載されたものです。
光度グラフはComet for Windowsで作成したものです。

---------------------------------------------------------------------

Copyright(C) 1995-2008 Seiichi Yoshida (comet@aerith.net). All rights reserved.